Regional Weather Roundup
Issued by NWS

Home | Current Version | Previous Version | Text Only | Print | Product List | Glossary On
Versions: 1 2 3 4 5 6 7 8 9 10 11 12 13 14 15 16 17 18 19 20 21 22 23 24 25 26 27 28 29 30 31 32 33 34 35 36 37 38 39 40 41 42 43 44 45 46 47 48 49 50
000
ASUS45 KCYS 020110
RWRWY

WYOMING REGIONAL WEATHER ROUNDUP
NATIONAL WEATHER SERVICE CHEYENNE WY
700 PM MDT FRI AUG 01 2014

NOTE:  "FAIR" INDICATES FEW OR NO CLOUDS BELOW 12,000 FEET
WITH NO SIGNIFICANT WEATHER AND/OR OBSTRUCTIONS TO VISIBILITY.

WYZ001-020200-
YELLOWSTONE NATIONAL PARK

CITY           SKY/WX    TMP DP  RH WIND       PRES   REMARKS
LK YELLOWSTONE   N/A     59  44  57 CALM      30.49S
W YELLOWSTONE  NOT AVBL

$$
WYZ002>013-054>058-071-098>099-020200-
NORTHERN WYOMING

CITY           SKY/WX    TMP DP  RH WIND       PRES   REMARKS
JACKSON          N/A     72  43  35 NE13      30.31
CODY           CLOUDY    70  45  40 W14G21    30.27F
GREYBULL       PTSUNNY   77  50  38 W26G35    30.14R
WORLAND        CLOUDY    80  43  26 NW15G22   30.14R
SHERIDAN       PTSUNNY   81  47  30 SE3       30.12S
BUFFALO        MOSUNNY   82  37  20 NW3       30.21S
GILLETTE       PTSUNNY   84  42  22 NW17      30.15R
HULETT         FAIR      84  41  21 MISG      30.14
NEWCASTLE      FAIR      81  34  18 CALM      30.15

$$
WYZ014>020-022>026-101>103-020200-
CENTRAL WYOMING

CITY           SKY/WX    TMP DP  RH WIND       PRES   REMARKS
BIG PINEY      PTSUNNY   72  38  29 NE16      30.33F
PINEDALE       CLOUDY    70  41  35 NW10      30.35F
DUBOIS         CLOUDY    61  41  48 SW10G17   30.39S
LANDER         PTSUNNY   77  42  28 NW16      30.21R
RIVERTON       PTSUNNY   81  35  19 NE17G25   30.21S
CASPER         MOSUNNY   83  35  18 NE16      30.20R
DOUGLAS        PTSUNNY   83  37  19 NE10      30.19R

$$
WYZ021-027>030-104>119-020200-
SOUTHERN WYOMING

CITY           SKY/WX    TMP DP  RH WIND       PRES   REMARKS
EVANSTON       MOSUNNY   80  26  13 NE10      30.29S
KEMMERER       CLEAR    N/A N/A N/A E6        30.31F
FORT BRIDGER   FAIR      81  29  15 N5        30.31F
ROCK SPRINGS   MOSUNNY   79  30  16 E12       30.26S
DIXON          FAIR      82  27  13 NE15G21   30.24R
RAWLINS        SUNNY     77  30  17 E15       30.28S
SARATOGA       FAIR      75  32  20 E10       30.29S
LARAMIE        SUNNY     69  36  29 SE15      30.34F
CHEYENNE       MOSUNNY   73  43  33 S13       30.28F
TORRINGTON     MOSUNNY   84  44  24 SE8       30.13S
PINE BLUFFS    FAIR      75  46  35 SE5       30.24S

$$


USA.gov is the U.S. government's official web portal to all federal, state and local government web resources and services.